Wind_Speed
22 20 19 19 19 19 19 18 16 8 11 10 9 11 12 14 15 15 18 21 18 17 20 19 20 20 20 15 10 11 12 11 9 10 9 17 20 28
22 20 19 21 20 21 20 19 18 15 14 11 13 15 16 15 18 18 17 19 19 21 19 19 17 18 20 16 16 16 16 15 13 14 13 9 16 20
21 20 21 20 20 20 20 20 21 20 20 21 21 17 16 17 17 18 18 19 20 18 18 18 17 21 18 15 13 14 17 16 15 11 8 10 6 15
20 21 21 19 20 21 21 20 21 19 19 20 20 18 16 16 16 17 18 20 18 19 17 16 20 21 17 13 11 10 13 11 9 11 3 4 5 8
21 20 21 21 21 21 22 22 21 20 18 20 22 19 18 17 18 19 18 18 17 16 16 19 22 18 15 11 10 9 9 10 10 8 9 4 7 12
21 21 22 22 21 21 22 22 23 21 19 20 22 21 19 19 20 20 21 21 18 17 18 19 18 14 12 10 11 12 12 12 12 10 9 10 10 10
20 21 21 22 24 24 24 23 20 19 19 21 22 21 20 19 19 18 18 18 18 17 18 20 16 14 13 12 13 13 14 14 14 14 13 12 12 12
20 20 20 21 21 21 20 18 19 20 20 21 20 22 21 20 19 18 17 16 16 18 19 18 15 16 15 14 14 14 14 14 14 15 17 18 16 16
19 18 17 17 16 16 14 15 15 16 17 17 20 19 18 16 15 16 16 16 18 18 12 11 11 13 14 14 13 12 12 11 12 14 16 17 19 20
17 16 16 13 13 13 13 13 13 12 11 11 14 15 15 14 14 14 14 16 16 15 13 12 11 12 12 12 11 10 8 7 7 8 11 13 16 18
15 15 14 12 11 12 13 12 12 12 11 10 9 9 11 12 12 12 13 13 13 12 12 12 10 9 9 10 9 8 7 7 6 6 6 6 8 9
16 15 15 13 13 14 14 15 14 13 12 10 8 8 9 10 11 12 12 12 12 9 10 12 9 6 5 9 9 8 8 8 8 8 7 6 7 7
17 16 16 15 17 17 16 16 14 13 13 11 10 10 9 9 10 10 10 10 11 11 6 8 7 9 7 4 5 7 8 8 8 9 10 9 9 9
17 16 16 17 19 19 16 15 15 14 13 13 13 12 11 11 11 9 8 9 9 10 9 8 8 8 8 7 6 6 8 9 9 9 11 12 13 13
18 16 16 17 20 18 16 16 16 14 14 14 14 13 12 12 10 10 9 9 7 7 7 9 8 8 9 10 10 8 9 8 10 11 12 13 14 14
20 16 16 17 18 18 19 18 18 15 14 14 14 14 12 11 11 11 10 9 8 8 8 8 9 10 12 13 11 10 10 9 6 9 11 13 14 14
19 20 20 22 22 22 22 19 19 18 17 16 15 14 13 13 13 12 11 11 10 9 9 9 10 12 13 13 12 11 11 11 12 14 15 16 17 18
26 26 25 25 25 25 24 23 23 21 18 17 16 16 15 14 14 13 13 13 12 11 11 11 11 12 13 12 13 13 13 12 13 14 16 18 19 20
31 29 29 26 26 26 25 25 23 21 18 18 17 16 15 15 16 16 14 14 13 13 13 13 13 13 13 13 14 12 13 14 14 15 17 19 21 21
31 30 31 30 29 27 27 26 24 23 21 20 19 18 17 17 17 17 16 15 14 14 15 15 15 14 14 16 16 16 13 14 17 18 19 20 20 21
31 31 30 31 29 28 28 25 24 23 22 21 20 19 18 18 18 19 18 16 17 17 17 16 14 15 17 18 20 17 16 16 16 17 19 20 20 20
30 29 28 28 26 26 28 25 25 25 25 24 22 20 19 19 19 19 19 19 20 18 17 16 17 18 18 19 20 19 20 19 17 18 19 19 19 18
29 26 25 26 25 24 26 26 25 25 25 23 22 21 20 20 19 20 21 21 21 20 19 18 19 21 20 21 21 22 21 20 19 18 19 18 18 21
Wind_Direction
240 242 253 267 270 271 273 271 262 261 273 269 267 288 272 279 272 273 267 267 255 263 276 281 277 287 299 291 249 262 263 254 256 251 264 255 246 235
232 242 255 264 265 268 271 268 263 252 257 267 268 276 273 270 274 274 269 268 271 272 268 278 279 295 299 281 255 250 262 266 265 259 250 284 247 242
236 248 256 260 264 267 267 267 264 260 258 261 265 276 271 277 273 273 262 272 268 267 279 274 289 302 288 269 264 253 257 266 265 252 255 256 269 232
244 252 257 261 262 263 265 265 262 260 258 262 264 268 274 271 270 265 265 266 267 270 265 278 301 301 279 258 255 266 249 251 248 247 251 270 265 215
248 254 259 263 263 265 264 260 261 259 249 250 264 268 266 266 269 271 274 276 271 268 276 295 302 295 268 252 250 250 244 243 247 251 238 202 175 176
249 254 257 261 261 260 257 256 254 254 251 251 256 262 266 268 268 269 268 267 266 268 281 292 286 273 267 262 254 255 253 244 245 240 239 228 211 211
253 258 261 261 261 257 252 250 248 246 249 253 259 262 264 265 267 268 265 263 263 269 277 280 264 260 264 263 260 258 256 251 246 239 233 235 229 224
249 256 260 262 256 246 241 247 248 249 251 250 255 258 263 266 264 260 258 258 260 266 273 258 250 257 261 263 265 262 261 258 250 244 238 232 233 239
247 252 260 260 247 244 246 246 254 256 254 249 250 257 261 260 256 251 250 254 258 260 257 253 251 256 260 260 263 265 262 255 249 244 241 239 238 242
249 259 261 261 248 244 251 256 259 250 249 250 250 245 245 245 243 243 244 246 252 250 245 257 256 257 260 258 257 258 253 247 248 239 239 238 240 242
250 252 258 254 247 239 247 247 244 245 243 245 246 249 250 246 240 237 239 242 245 245 245 249 253 250 250 248 247 247 243 243 241 233 229 231 231 235
249 249 255 254 240 238 239 238 233 240 241 241 240 239 239 236 229 225 229 230 239 253 241 230 236 228 239 240 236 238 241 240 239 232 228 231 234 241
248 250 254 248 234 232 232 230 229 233 235 235 235 232 232 230 228 227 228 230 231 231 240 217 227 215 222 234 221 232 238 241 240 241 242 245 255 256
246 248 248 237 228 231 226 223 228 231 234 232 232 231 232 234 233 228 228 229 229 227 222 219 222 209 221 238 245 245 245 241 246 242 248 261 264 262
239 246 246 241 229 227 222 222 229 228 228 229 229 227 226 229 228 226 224 220 217 218 221 222 224 234 241 250 257 261 259 258 257 257 261 265 266 266
230 239 247 239 225 221 224 222 227 226 226 224 223 223 223 223 222 223 219 215 216 222 230 239 250 256 259 258 256 254 253 248 252 260 266 270 272 273
227 232 233 228 221 220 221 221 223 222 221 219 219 219 220 221 221 219 215 213 215 229 245 256 264 264 260 259 258 258 258 259 265 272 278 279 279 279
224 228 230 232 230 227 227 228 228 226 224 220 221 222 222 223 222 221 217 219 233 242 250 257 267 267 266 264 260 256 256 259 264 271 276 279 280 280
228 231 235 236 234 231 230 231 231 229 225 226 226 224 224 224 224 221 222 232 241 249 254 262 267 263 262 264 263 258 263 265 272 275 277 280 284 284
230 236 238 237 236 227 230 230 226 224 223 226 226 225 226 229 230 230 236 241 244 250 259 268 265 261 263 261 262 268 261 272 278 277 280 282 284 284
228 238 239 239 238 237 225 227 226 227 227 230 231 229 229 231 233 235 240 243 246 254 265 269 261 256 261 265 266 271 271 275 277 280 283 284 287 285
233 239 241 241 237 233 224 224 225 225 226 228 230 231 232 235 238 237 241 249 251 260 267 257 254 259 264 265 268 271 276 279 277 274 274 277 281 279
232 236 239 241 236 228 221 221 222 225 228 229 230 231 234 238 239 242 251 249 249 258 261 256 255 259 264 268 268 271 273 277 279 280 284 284 282 285
Height
1510 1513 1515 1514 1513 1512 1512 1512 1513 1513 1514 1512 1512 1510 1508 1508 1508 1509 1509 1507 1507 1508 1508 1508 1507 1509 1508 1505 1505 1504 1505 1504 1502 1501 1501 1500 1501 1504
1505 1507 1509 1509 1508 1508 1507 1506 1507 1507 1508 1507 1508 1507 1507 1504 1505 1504 1506 1504 1504 1504 1504 1504 1504 1504 1503 1501 1501 1501 1502 1502 1500 1500 1499 1499 1497 1498
1501 1502 1504 1503 1501 1502 1502 1502 1502 1500 1500 1501 1503 1504 1504 1501 1500 1501 1501 1501 1499 1500 1499 1500 1499 1499 1498 1497 1498 1497 1498 1498 1497 1498 1497 1497 1495 1495
1494 1496 1497 1495 1495 1496 1494 1495 1497 1496 1496 1497 1495 1498 1498 1497 1497 1497 1496 1495 1495 1495 1495 1495 1495 1494 1493 1494 1494 1494 1495 1496 1496 1496 1496 1496 1495 1494
1489 1488 1490 1489 1490 1488 1489 1491 1490 1491 1491 1491 1492 1493 1494 1492 1492 1492 1492 1492 1492 1492 1492 1492 1491 1490 1490 1491 1491 1492 1493 1493 1494 1495 1495 1496 1496 1496
1483 1482 1484 1483 1481 1481 1483 1484 1485 1487 1488 1487 1488 1488 1488 1487 1486 1487 1488 1488 1487 1488 1488 1488 1488 1487 1487 1489 1489 1489 1490 1491 1492 1493 1494 1494 1495 1496
1477 1478 1478 1477 1476 1475 1476 1479 1480 1480 1480 1481 1482 1481 1482 1481 1482 1484 1484 1484 1483 1484 1484 1485 1485 1485 1485 1485 1485 1486 1487 1487 1489 1491 1492 1492 1494 1495
1472 1473 1474 1471 1470 1469 1472 1471 1472 1473 1473 1474 1475 1477 1477 1477 1479 1479 1480 1480 1481 1481 1480 1480 1480 1481 1481 1482 1482 1482 1483 1483 1485 1487 1488 1490 1491 1493
1465 1466 1465 1465 1466 1465 1464 1467 1466 1466 1467 1468 1471 1472 1473 1473 1474 1474 1476 1477 1477 1478 1478 1477 1477 1477 1478 1479 1479 1479 1479 1480 1481 1482 1484 1486 1488 1490
1460 1458 1460 1458 1459 1461 1461 1461 1461 1461 1463 1462 1467 1466 1468 1469 1470 1472 1472 1473 1474 1474 1474 1475 1474 1474 1475 1476 1476 1477 1477 1478 1478 1479 1480 1482 1484 1486
1452 1452 1455 1454 1454 1455 1456 1455 1459 1461 1461 1461 1462 1463 1465 1466 1467 1468 1468 1470 1470 1471 1471 1472 1472 1471 1472 1473 1473 1474 1476 1477 1477 1478 1479 1480 1482 1483
1448 1447 1449 1447 1449 1451 1453 1454 1454 1458 1459 1458 1459 1460 1462 1463 1464 1464 1465 1466 1468 1468 1468 1470 1469 1470 1471 1471 1471 1472 1473 1474 1475 1477 1478 1479 1480 1481
1441 1441 1444 1443 1447 1449 1449 1450 1451 1453 1455 1455 1456 1458 1459 1461 1462 1462 1462 1463 1464 1465 1466 1467 1468 1469 1470 1470 1470 1471 1472 1473 1474 1475 1476 1477 1479 1479
1437 1438 1439 1441 1444 1444 1444 1446 1448 1450 1451 1452 1454 1455 1456 1458 1459 1459 1459 1461 1462 1463 1464 1466 1467 1468 1468 1469 1469 1469 1470 1470 1471 1472 1474 1475 1475 1476
1434 1434 1434 1436 1437 1438 1439 1442 1445 1447 1448 1449 1451 1452 1453 1455 1456 1457 1458 1459 1460 1461 1463 1464 1465 1466 1467 1467 1467 1468 1468 1468 1469 1469 1470 1471 1471 1472
1428 1427 1428 1430 1431 1434 1436 1438 1441 1443 1444 1446 1447 1448 1449 1451 1453 1454 1456 1457 1458 1460 1461 1462 1463 1463 1464 1464 1464 1465 1465 1466 1466 1466 1467 1467 1467 1468
1421 1421 1422 1424 1425 1428 1432 1433 1436 1438 1440 1442 1443 1444 1446 1448 1450 1451 1453 1454 1456 1457 1458 1459 1460 1460 1460 1461 1461 1462 1462 1463 1463 1463 1463 1463 1463 1463
1411 1413 1415 1417 1419 1422 1426 1428 1430 1433 1436 1437 1439 1441 1443 1445 1447 1448 1450 1452 1453 1454 1455 1456 1457 1457 1457 1457 1458 1458 1458 1459 1459 1459 1459 1458 1458 1458
1403 1406 1408 1410 1414 1417 1420 1423 1425 1429 1431 1433 1435 1437 1439 1441 1442 1444 1446 1448 1449 1451 1451 1452 1453 1453 1453 1453 1454 1455 1455 1455 1454 1454 1454 1453 1453 1453
1396 1398 1401 1404 1407 1410 1413 1416 1420 1423 1425 1428 1431 1433 1434 1437 1439 1441 1442 1444 1445 1446 1447 1447 1448 1449 1449 1449 1449 1450 1450 1450 1450 1449 1448 1448 1447 1446
1387 1390 1394 1397 1400 1403 1406 1410 1414 1417 1420 1423 1426 1428 1430 1432 1434 1436 1438 1439 1440 1441 1442 1443 1443 1444 1444 1444 1444 1445 1445 1445 1445 1444 1443 1442 1441 1440
1381 1384 1387 1390 1393 1396 1400 1403 1407 1410 1413 1416 1419 1422 1424 1427 1429 1431 1433 1434 1435 1436 1437 1438 1438 1438 1439 1439 1439 1439 1439 1439 1439 1439 1438 1437 1437 1435
1374 1377 1379 1383 1386 1389 1392 1396 1400 1403 1407 1410 1413 1416 1418 1421 1424 1426 1427 1428 1430 1431 1431 1432 1433 1433 1433 1433 1434 1434 1433 1433 1432 1432 1431 1431 1430 1429